Time,TemperatureF,DewpointF,PressureIn,WindDirection,WindDirectionDegrees,WindSpeedMPH,WindSpeedGustMPH,Humidity,HourlyPrecipIn,Conditions,Clouds,dailyrainin,SoftwareType,DateUTC
2013-08-11 00:04:00,73.8,69.7,30.10,SSE,157,0.0,0.0,87,0.00,,,0.00,WUHU21623XXSP,2013-08-11 05:04:00,
2013-08-11 00:09:00,73.8,69.7,30.10,SSE,157,0.0,0.0,87,0.00,,,0.00,WUHU21623XXSP,2013-08-11 05:09:00,
2013-08-11 00:14:00,73.6,69.5,30.10,SSE,157,0.0,0.0,87,0.00,,,0.00,WUHU21623XXSP,2013-08-11 05:14:00,
2013-08-11 00:19:00,73.6,69.5,30.09,South,180,0.0,0.0,87,0.00,,,0.00,WUHU21623XXSP,2013-08-11 05:19:00,
2013-08-11 00:24:00,73.4,69.3,30.10,South,180,0.0,0.0,87,0.00,,,0.00,WUHU21623XXSP,2013-08-11 05:24:00,
2013-08-11 00:30:00,73.2,69.1,30.10,South,180,0.0,0.0,87,0.00,,,0.00,WUHU21623XXSP,2013-08-11 05:30:00,
2013-08-11 00:35:00,73.2,69.5,30.10,South,180,0.0,0.0,88,0.00,,,0.00,WUHU21623XXSP,2013-08-11 05:35:00,
2013-08-11 00:40:00,73.2,69.5,30.10,South,180,0.0,0.0,88,0.00,,,0.00,WUHU21623XXSP,2013-08-11 05:40:00,
2013-08-11 00:45:00,73.2,69.5,30.09,South,180,0.0,0.0,88,0.00,,,0.00,WUHU21623XXSP,2013-08-11 05:45:00,
2013-08-11 00:50:00,73.0,69.3,30.09,South,180,0.0,0.0,88,0.00,,,0.00,WUHU21623XXSP,2013-08-11 05:50:00,
2013-08-11 00:56:00,73.0,69.3,30.10,South,180,0.0,0.0,88,0.00,,,0.00,WUHU21623XXSP,2013-08-11 05:56:00,
2013-08-11 01:02:00,73.0,69.3,30.09,South,180,0.0,0.0,88,0.00,,,0.00,WUHU21623XXSP,2013-08-11 06:02:00,
2013-08-11 01:07:00,73.0,69.3,30.10,South,180,0.0,0.0,88,0.00,,,0.00,WUHU21623XXSP,2013-08-11 06:07:00,
2013-08-11 01:12:00,73.0,69.3,30.10,South,180,0.0,0.0,88,0.00,,,0.00,WUHU21623XXSP,2013-08-11 06:12:00,
2013-08-11 01:17:00,72.9,69.3,30.09,South,180,0.0,0.0,88,0.00,,,0.00,WUHU21623XXSP,2013-08-11 06:17:00,
2013-08-11 01:22:00,72.9,69.1,30.09,SSE,157,0.0,0.0,88,0.00,,,0.00,WUHU21623XXSP,2013-08-11 06:22:00,
2013-08-11 01:27:00,72.9,69.1,30.09,SSE,157,0.0,0.0,88,0.00,,,0.00,WUHU21623XXSP,2013-08-11 06:27:00,
2013-08-11 01:33:00,73.0,69.3,30.09,SSE,157,0.0,0.0,88,0.00,,,0.00,WUHU21623XXSP,2013-08-11 06:33:00,
2013-08-11 01:38:00,73.0,69.3,30.09,SSE,157,0.0,0.0,88,0.00,,,0.00,WUHU21623XXSP,2013-08-11 06:38:00,
2013-08-11 01:43:00,73.0,69.3,30.09,SSE,157,0.0,0.0,88,0.00,,,0.00,WUHU21623XXSP,2013-08-11 06:43:00,
2013-08-11 01:48:00,73.0,69.3,30.09,SSE,157,0.0,0.0,88,0.00,,,0.00,WUHU21623XXSP,2013-08-11 06:48:00,
2013-08-11 01:54:00,73.0,69.3,30.09,SSE,157,0.0,0.0,88,0.00,,,0.00,WUHU21623XXSP,2013-08-11 06:54:00,
2013-08-11 01:59:00,73.0,69.3,30.09,SSE,157,0.0,0.0,88,0.00,,,0.00,WUHU21623XXSP,2013-08-11 06:59:00,
2013-08-11 02:05:00,73.0,69.3,30.09,SSE,157,0.0,0.0,88,0.00,,,0.00,WUHU21623XXSP,2013-08-11 07:05:00,
2013-08-11 02:10:00,73.0,69.3,30.09,SSE,157,0.0,0.0,88,0.00,,,0.00,WUHU21623XXSP,2013-08-11 07:10:00,
2013-08-11 02:15:00,73.0,69.3,30.09,SSE,157,0.0,0.0,88,0.00,,,0.00,WUHU21623XXSP,2013-08-11 07:15:00,
2013-08-11 02:20:00,73.0,69.3,30.08,SSE,157,0.0,0.0,88,0.00,,,0.00,WUHU21623XXSP,2013-08-11 07:20:00,
2013-08-11 02:25:00,73.0,69.5,30.08,SSE,157,0.0,0.0,88,0.00,,,0.00,WUHU21623XXSP,2013-08-11 07:25:00,
2013-08-11 02:30:00,73.2,69.5,30.08,SSE,157,0.0,0.0,88,0.00,,,0.00,WUHU21623XXSP,2013-08-11 07:30:00,
2013-08-11 02:35:00,73.2,69.5,30.08,SSE,157,0.0,0.0,88,0.00,,,0.00,WUHU21623XXSP,2013-08-11 07:35:00,
2013-08-11 02:40:00,73.2,69.5,30.08,SSE,157,0.0,0.0,88,0.00,,,0.00,WUHU21623XXSP,2013-08-11 07:40:00,
2013-08-11 02:45:00,73.4,69.7,30.09,SSE,157,0.0,0.0,88,0.00,,,0.00,WUHU21623XXSP,2013-08-11 07:45:00,
2013-08-11 02:50:00,73.4,69.3,30.09,SSE,157,0.0,0.0,87,0.00,,,0.00,WUHU21623XXSP,2013-08-11 07:50:00,
2013-08-11 02:55:00,73.4,69.3,30.08,SSE,157,0.0,0.0,87,0.00,,,0.00,WUHU21623XXSP,2013-08-11 07:55:00,
2013-08-11 03:01:00,73.6,69.5,30.09,SSE,157,0.0,0.0,87,0.00,,,0.00,WUHU21623XXSP,2013-08-11 08:01:00,
2013-08-11 03:06:00,73.6,69.5,30.09,SSE,157,0.0,0.0,87,0.00,,,0.00,WUHU21623XXSP,2013-08-11 08:06:00,
2013-08-11 03:12:00,73.6,69.5,30.09,SSE,157,0.0,0.0,87,0.00,,,0.00,WUHU21623XXSP,2013-08-11 08:12:00,
2013-08-11 03:17:00,73.6,69.2,30.08,SSE,157,0.0,0.0,86,0.00,,,0.00,WUHU21623XXSP,2013-08-11 08:17:00,
2013-08-11 03:22:00,73.6,68.8,30.08,SSE,157,0.0,0.0,85,0.00,,,0.00,WUHU21623XXSP,2013-08-11 08:22:00,
2013-08-11 03:27:00,73.6,68.5,30.09,SSE,157,0.0,0.0,84,0.00,,,0.00,WUHU21623XXSP,2013-08-11 08:27:00,
2013-08-11 03:32:00,73.6,68.5,30.09,SSE,157,0.0,0.0,84,0.00,,,0.00,WUHU21623XXSP,2013-08-11 08:32:00,
2013-08-11 03:37:00,73.6,68.1,30.09,SSE,157,0.0,0.0,83,0.00,,,0.00,WUHU21623XXSP,2013-08-11 08:37:00,
2013-08-11 03:42:00,73.6,68.1,30.09,SSE,157,0.0,0.0,83,0.00,,,0.00,WUHU21623XXSP,2013-08-11 08:42:00,
2013-08-11 03:48:00,73.4,67.9,30.09,SSE,157,0.0,0.0,83,0.00,,,0.00,WUHU21623XXSP,2013-08-11 08:48:00,
2013-08-11 03:53:00,73.2,67.8,30.09,SSE,157,0.0,0.0,83,0.00,,,0.00,WUHU21623XXSP,2013-08-11 08:53:00,
2013-08-11 03:58:00,73.2,67.8,30.09,SSE,157,0.0,0.0,83,0.00,,,0.00,WUHU21623XXSP,2013-08-11 08:58:00,
2013-08-11 04:03:00,73.2,67.8,30.09,SSE,157,0.0,0.0,83,0.00,,,0.00,WUHU21623XXSP,2013-08-11 09:03:00,
2013-08-11 04:08:00,73.2,67.8,30.09,SSE,157,0.0,0.0,83,0.00,,,0.00,WUHU21623XXSP,2013-08-11 09:08:00,
2013-08-11 04:13:00,73.2,67.4,30.09,SSE,157,0.0,0.0,82,0.00,,,0.00,WUHU21623XXSP,2013-08-11 09:13:00,
2013-08-11 04:18:00,73.0,67.2,30.09,SSE,157,0.0,0.0,82,0.00,,,0.00,WUHU21623XXSP,2013-08-11 09:18:00,
2013-08-11 04:24:00,73.0,67.6,30.09,SSE,157,0.0,0.0,83,0.00,,,0.00,WUHU21623XXSP,2013-08-11 09:24:00,
2013-08-11 04:29:00,72.7,67.2,30.09,SSE,157,0.0,0.0,83,0.00,,,0.00,WUHU21623XXSP,2013-08-11 09:29:00,
2013-08-11 04:34:00,72.5,67.0,30.09,SSE,157,0.0,0.0,83,0.00,,,0.00,WUHU21623XXSP,2013-08-11 09:34:00,
2013-08-11 04:41:00,72.1,67.0,30.09,SSE,157,0.0,0.0,84,0.00,,,0.00,WUHU21623XXSP,2013-08-11 09:41:00,
2013-08-11 04:46:00,72.1,67.0,30.09,SSE,157,0.0,0.0,84,0.00,,,0.00,WUHU21623XXSP,2013-08-11 09:46:00,
2013-08-11 04:51:00,72.1,67.0,30.10,SSE,157,0.0,0.0,84,0.00,,,0.00,WUHU21623XXSP,2013-08-11 09:51:00,
2013-08-11 04:56:00,71.8,67.0,30.10,SSE,157,0.0,0.0,85,0.00,,,0.00,WUHU21623XXSP,2013-08-11 09:56:00,
2013-08-11 05:01:00,71.8,67.0,30.10,SSE,157,0.0,0.0,85,0.00,,,0.00,WUHU21623XXSP,2013-08-11 10:01:00,
2013-08-11 05:06:00,71.6,66.8,30.10,SSE,157,0.0,0.0,85,0.00,,,0.00,WUHU21623XXSP,2013-08-11 10:06:00,
2013-08-11 05:11:00,71.4,67.0,30.10,SSE,157,0.0,0.0,86,0.00,,,0.00,WUHU21623XXSP,2013-08-11 10:11:00,
2013-08-11 05:16:00,71.4,67.0,30.10,SSE,157,0.0,0.0,86,0.00,,,0.00,WUHU21623XXSP,2013-08-11 10:16:00,
2013-08-11 05:21:00,71.2,66.8,30.10,SSE,157,0.0,0.0,86,0.00,,,0.00,WUHU21623XXSP,2013-08-11 10:21:00,
2013-08-11 05:27:00,71.2,66.8,30.10,SSE,157,0.0,0.0,86,0.00,,,0.00,WUHU21623XXSP,2013-08-11 10:27:00,
2013-08-11 05:32:00,71.2,66.8,30.10,SSE,157,0.0,0.0,86,0.00,,,0.00,WUHU21623XXSP,2013-08-11 10:32:00,
2013-08-11 05:37:00,71.1,66.6,30.10,SSE,157,0.0,0.0,86,0.00,,,0.00,WUHU21623XXSP,2013-08-11 10:37:00,
2013-08-11 05:42:00,71.2,66.8,30.10,SSE,157,0.0,0.0,86,0.00,,,0.00,WUHU21623XXSP,2013-08-11 10:42:00,
2013-08-11 05:47:00,71.2,67.2,30.11,SSE,157,0.0,0.0,87,0.00,,,0.00,WUHU21623XXSP,2013-08-11 10:47:00,
2013-08-11 05:52:00,71.2,67.2,30.10,SSE,157,0.0,0.0,87,0.00,,,0.00,WUHU21623XXSP,2013-08-11 10:52:00,
2013-08-11 05:57:00,71.2,67.2,30.11,SSE,157,0.0,0.0,87,0.00,,,0.00,WUHU21623XXSP,2013-08-11 10:57:00,
2013-08-11 06:02:00,71.4,67.3,30.10,SSE,157,0.0,0.0,87,0.00,,,0.00,WUHU21623XXSP,2013-08-11 11:02:00,
2013-08-11 06:07:00,71.4,67.0,30.11,SSE,157,0.0,0.0,86,0.00,,,0.00,WUHU21623XXSP,2013-08-11 11:07:00,
2013-08-11 06:13:00,71.8,67.4,30.11,SSE,157,0.0,0.0,86,0.00,,,0.00,WUHU21623XXSP,2013-08-11 11:13:00,
2013-08-11 06:18:00,72.0,67.5,30.11,SSE,157,0.0,0.0,86,0.00,,,0.00,WUHU21623XXSP,2013-08-11 11:18:00,
2013-08-11 06:23:00,72.0,67.5,30.11,SSE,157,0.0,0.0,86,0.00,,,0.00,WUHU21623XXSP,2013-08-11 11:23:00,
2013-08-11 06:28:00,72.0,67.5,30.11,SSE,157,0.0,0.0,86,0.00,,,0.00,WUHU21623XXSP,2013-08-11 11:28:00,
2013-08-11 06:33:00,72.1,67.7,30.11,SSE,157,0.0,0.0,86,0.00,,,0.00,WUHU21623XXSP,2013-08-11 11:33:00,
2013-08-11 06:38:00,72.3,67.9,30.11,SSE,157,0.0,0.0,86,0.00,,,0.00,WUHU21623XXSP,2013-08-11 11:38:00,
2013-08-11 06:44:00,72.1,67.7,30.11,SSE,157,0.0,0.0,86,0.00,,,0.00,WUHU21623XXSP,2013-08-11 11:44:00,
2013-08-11 06:49:00,72.3,67.6,30.11,SSE,157,0.0,0.0,85,0.00,,,0.00,WUHU21623XXSP,2013-08-11 11:49:00,
2013-08-11 06:54:00,72.5,67.7,30.11,SSW,202,0.0,0.0,85,0.00,,,0.00,WUHU21623XXSP,2013-08-11 11:54:00,
2013-08-11 06:59:00,72.5,67.7,30.12,SSW,202,0.0,0.0,85,0.00,,,0.00,WUHU21623XXSP,2013-08-11 11:59:00,
2013-08-11 07:04:00,72.7,67.9,30.11,SSW,202,0.0,0.0,85,0.00,,,0.00,WUHU21623XXSP,2013-08-11 12:04:00,
2013-08-11 07:09:00,72.7,68.1,30.12,South,180,0.0,0.0,85,0.00,,,0.00,WUHU21623XXSP,2013-08-11 12:09:00,
2013-08-11 07:15:00,72.7,67.9,30.12,South,180,0.0,0.0,85,0.00,,,0.00,WUHU21623XXSP,2013-08-11 12:15:00,
2013-08-11 07:20:00,72.9,67.7,30.12,SSE,157,0.0,0.0,84,0.00,,,0.00,WUHU21623XXSP,2013-08-11 12:20:00,
2013-08-11 07:25:00,72.7,67.6,30.12,SE,135,0.0,0.0,84,0.00,,,0.00,WUHU21623XXSP,2013-08-11 12:25:00,
2013-08-11 07:30:00,73.0,67.9,30.12,SE,135,0.0,0.0,84,0.00,,,0.00,WUHU21623XXSP,2013-08-11 12:30:00,
2013-08-11 07:36:00,73.2,68.1,30.12,SE,135,0.0,0.0,84,0.00,,,0.00,WUHU21623XXSP,2013-08-11 12:36:00,
2013-08-11 07:42:00,73.6,68.1,30.12,SE,135,0.0,0.0,83,0.00,,,0.00,WUHU21623XXSP,2013-08-11 12:42:00,
2013-08-11 07:47:00,73.9,68.3,30.12,SE,135,0.0,0.0,83,0.00,,,0.00,WUHU21623XXSP,2013-08-11 12:47:00,
2013-08-11 07:52:00,74.3,68.8,30.12,SE,135,0.0,0.0,83,0.00,,,0.00,WUHU21623XXSP,2013-08-11 12:52:00,
2013-08-11 07:57:00,74.5,68.7,30.12,SE,135,0.0,0.0,82,0.00,,,0.00,WUHU21623XXSP,2013-08-11 12:57:00,
2013-08-11 08:02:00,75.0,68.9,30.12,SE,135,0.0,0.0,81,0.00,,,0.00,WUHU21623XXSP,2013-08-11 13:02:00,
2013-08-11 08:07:00,75.4,69.2,30.12,SE,135,0.0,0.0,81,0.00,,,0.00,WUHU21623XXSP,2013-08-11 13:07:00,
2013-08-11 08:12:00,75.6,69.4,30.12,SE,135,0.0,0.0,81,0.00,,,0.00,WUHU21623XXSP,2013-08-11 13:12:00,
2013-08-11 08:17:00,76.3,69.3,30.12,SE,135,0.0,0.0,79,0.00,,,0.00,WUHU21623XXSP,2013-08-11 13:17:00,
2013-08-11 08:22:00,76.8,69.8,30.12,SE,135,0.0,0.0,79,0.00,,,0.00,WUHU21623XXSP,2013-08-11 13:22:00,
2013-08-11 08:27:00,77.5,70.5,30.12,SE,135,0.0,0.0,79,0.00,,,0.00,WUHU21623XXSP,2013-08-11 13:27:00,
2013-08-11 08:32:00,78.1,70.6,30.12,SE,135,0.0,0.0,78,0.00,,,0.00,WUHU21623XXSP,2013-08-11 13:32:00,
2013-08-11 08:37:00,78.6,70.8,30.12,SE,135,0.0,0.0,77,0.00,,,0.00,WUHU21623XXSP,2013-08-11 13:37:00,
2013-08-11 08:43:00,78.8,71.0,30.12,SE,135,0.0,0.0,76,0.00,,,0.00,WUHU21623XXSP,2013-08-11 13:43:00,
2013-08-11 08:48:00,79.7,71.1,30.12,SE,135,0.0,0.0,75,0.00,,,0.00,WUHU21623XXSP,2013-08-11 13:48:00,
2013-08-11 08:53:00,79.7,71.1,30.12,SE,135,0.0,0.0,75,0.00,,,0.00,WUHU21623XXSP,2013-08-11 13:53:00,
2013-08-11 08:58:00,80.2,70.8,30.12,SE,135,0.0,0.0,74,0.00,,,0.00,WUHU21623XXSP,2013-08-11 13:58:00,
2013-08-11 09:03:00,80.4,71.0,30.12,West,270,0.0,0.0,73,0.00,,,0.00,WUHU21623XXSP,2013-08-11 14:03:00,
2013-08-11 09:09:00,80.8,71.3,30.12,West,270,0.0,0.0,73,0.00,,,0.00,WUHU21623XXSP,2013-08-11 14:09:00,
2013-08-11 09:14:00,81.3,71.8,30.12,West,270,0.0,0.0,73,0.00,,,0.00,WUHU21623XXSP,2013-08-11 14:14:00,
2013-08-11 09:19:00,81.5,71.6,30.12,SW,225,0.0,0.0,72,0.00,,,0.00,WUHU21623XXSP,2013-08-11 14:19:00,
2013-08-11 09:24:00,81.3,71.4,30.12,SSE,157,0.0,0.0,72,0.00,,,0.00,WUHU21623XXSP,2013-08-11 14:24:00,
2013-08-11 09:30:00,81.5,71.2,30.12,SSE,157,0.0,0.0,71,0.00,,,0.00,WUHU21623XXSP,2013-08-11 14:30:00,
2013-08-11 09:35:00,82.2,71.4,30.12,SSE,157,0.0,0.0,70,0.00,,,0.00,WUHU21623XXSP,2013-08-11 14:35:00,
2013-08-11 09:40:00,82.9,72.1,30.13,SSE,157,0.0,0.0,70,0.00,,,0.00,WUHU21623XXSP,2013-08-11 14:40:00,
2013-08-11 09:45:00,82.9,71.7,30.13,SSE,157,0.0,0.0,69,0.00,,,0.00,WUHU21623XXSP,2013-08-11 14:45:00,
2013-08-11 09:50:00,82.6,71.3,30.13,SSE,157,0.0,0.0,69,0.00,,,0.00,WUHU21623XXSP,2013-08-11 14:50:00,
2013-08-11 09:55:00,82.8,71.5,30.13,SSE,157,0.0,0.0,69,0.00,,,0.00,WUHU21623XXSP,2013-08-11 14:55:00,
2013-08-11 10:00:00,83.3,72.1,30.13,SSE,157,0.0,0.0,69,0.00,,,0.00,WUHU21623XXSP,2013-08-11 15:00:00,
2013-08-11 10:06:00,83.5,71.8,30.13,SSE,157,0.0,0.0,68,0.00,,,0.00,WUHU21623XXSP,2013-08-11 15:06:00,
2013-08-11 10:11:00,83.3,71.2,30.13,SSE,157,0.0,0.0,67,0.00,,,0.00,WUHU21623XXSP,2013-08-11 15:11:00,
2013-08-11 10:16:00,83.7,72.0,30.13,SSE,157,0.0,0.0,68,0.00,,,0.00,WUHU21623XXSP,2013-08-11 15:16:00,
2013-08-11 10:21:00,83.5,71.8,30.13,SSE,157,0.0,0.0,68,0.00,,,0.00,WUHU21623XXSP,2013-08-11 15:21:00,
2013-08-11 10:26:00,83.5,71.8,30.13,ESE,112,0.0,0.0,68,0.00,,,0.00,WUHU21623XXSP,2013-08-11 15:26:00,
2013-08-11 10:32:00,84.0,72.0,30.13,ESE,112,0.0,0.0,70,0.00,,,0.00,WUHU21623XXSP,2013-08-11 15:32:00,
2013-08-11 10:37:00,84.4,72.7,30.13,ESE,112,0.0,0.0,68,0.00,,,0.00,WUHU21623XXSP,2013-08-11 15:37:00,
2013-08-11 10:43:00,84.4,72.7,30.13,ESE,112,0.0,0.0,68,0.00,,,0.00,WUHU21623XXSP,2013-08-11 15:43:00,
2013-08-11 10:48:00,84.0,71.2,30.13,ESE,112,0.0,0.0,66,0.00,,,0.00,WUHU21623XXSP,2013-08-11 15:48:00,
2013-08-11 10:53:00,84.2,71.6,30.13,ESE,112,0.0,0.0,66,0.00,,,0.00,WUHU21623XXSP,2013-08-11 15:53:00,
2013-08-11 10:58:00,84.9,71.4,30.12,ESE,112,0.0,0.0,64,0.00,,,0.00,WUHU21623XXSP,2013-08-11 15:58:00,
2013-08-11 11:03:00,85.6,71.6,30.12,ESE,112,0.0,0.0,63,0.00,,,0.00,WUHU21623XXSP,2013-08-11 16:03:00,
2013-08-11 11:08:00,85.8,72.4,30.13,ESE,112,6.2,12.1,63,0.00,,,0.00,WUHU21623XXSP,2013-08-11 16:08:00,
2013-08-11 11:14:00,84.7,70.7,30.13,ENE,67,0.0,12.1,63,0.00,,,0.00,WUHU21623XXSP,2013-08-11 16:14:00,
2013-08-11 11:19:00,84.4,70.0,30.13,ESE,112,0.0,7.4,62,0.00,,,0.00,WUHU21623XXSP,2013-08-11 16:19:00,
2013-08-11 11:24:00,84.7,69.8,30.13,ENE,67,0.0,12.3,61,0.00,,,0.00,WUHU21623XXSP,2013-08-11 16:24:00,
2013-08-11 11:29:00,85.3,70.3,30.13,East,90,0.0,12.3,61,0.00,,,0.00,WUHU21623XXSP,2013-08-11 16:29:00,
2013-08-11 11:34:00,86.0,70.6,30.13,SE,135,0.0,0.0,60,0.00,,,0.00,WUHU21623XXSP,2013-08-11 16:34:00,
2013-08-11 11:39:00,86.5,70.5,30.13,SE,135,0.0,0.0,59,0.00,,,0.00,WUHU21623XXSP,2013-08-11 16:39:00,
2013-08-11 11:44:00,86.2,69.6,30.13,SE,135,0.0,0.0,58,0.00,,,0.00,WUHU21623XXSP,2013-08-11 16:44:00,
2013-08-11 11:49:00,86.2,70.2,30.13,SE,135,0.0,0.0,59,0.00,,,0.00,WUHU21623XXSP,2013-08-11 16:49:00,
2013-08-11 11:54:00,86.2,69.6,30.13,SE,135,0.0,0.0,60,0.00,,,0.00,WUHU21623XXSP,2013-08-11 16:54:00,
2013-08-11 11:59:00,85.6,69.7,30.13,SE,135,0.0,0.0,59,0.00,,,0.00,WUHU21623XXSP,2013-08-11 16:59:00,
2013-08-11 12:05:00,86.0,70.0,30.13,SE,135,0.0,0.0,59,0.00,,,0.00,WUHU21623XXSP,2013-08-11 17:05:00,
2013-08-11 12:10:00,86.7,69.1,30.13,SE,135,0.0,0.0,56,0.00,,,0.00,WUHU21623XXSP,2013-08-11 17:10:00,
2013-08-11 12:15:00,86.9,69.3,30.13,ESE,112,0.0,0.0,56,0.00,,,0.00,WUHU21623XXSP,2013-08-11 17:15:00,
2013-08-11 12:21:00,87.4,69.8,30.13,ESE,112,0.0,0.0,56,0.00,,,0.00,WUHU21623XXSP,2013-08-11 17:21:00,
2013-08-11 12:26:00,86.9,68.2,30.13,East,90,0.0,0.0,54,0.00,,,0.00,WUHU21623XXSP,2013-08-11 17:26:00,
2013-08-11 12:31:00,86.2,69.1,30.12,East,90,0.0,0.0,57,0.00,,,0.00,WUHU21623XXSP,2013-08-11 17:31:00,
2013-08-11 12:36:00,86.2,69.6,30.12,East,90,6.2,12.8,58,0.00,,,0.00,WUHU21623XXSP,2013-08-11 17:36:00,
2013-08-11 12:41:00,86.9,70.4,30.12,NE,45,0.0,12.8,58,0.00,,,0.00,WUHU21623XXSP,2013-08-11 17:41:00,
2013-08-11 12:46:00,87.4,70.3,30.12,NE,45,0.0,0.0,57,0.00,,,0.00,WUHU21623XXSP,2013-08-11 17:46:00,
2013-08-11 12:51:00,88.0,70.5,30.12,NE,45,7.8,15.2,57,0.00,,,0.00,WUHU21623XXSP,2013-08-11 17:51:00,
2013-08-11 12:56:00,87.4,68.7,30.12,SE,135,6.5,15.2,54,0.00,,,0.00,WUHU21623XXSP,2013-08-11 17:56:00,
2013-08-11 13:01:00,87.4,68.7,30.12,SE,135,6.5,12.8,54,0.00,,,0.00,WUHU21623XXSP,2013-08-11 18:01:00,
2013-08-11 13:06:00,87.4,68.7,30.11,ESE,112,0.0,12.8,54,0.00,,,0.00,WUHU21623XXSP,2013-08-11 18:06:00,
2013-08-11 13:11:00,87.6,70.0,30.11,ESE,112,0.0,12.8,56,0.00,,,0.00,WUHU21623XXSP,2013-08-11 18:11:00,
2013-08-11 13:16:00,87.6,70.5,30.12,ENE,67,0.0,0.0,57,0.00,,,0.00,WUHU21623XXSP,2013-08-11 18:16:00,
2013-08-11 13:21:00,86.5,69.5,30.11,SSE,157,0.0,0.0,57,0.00,,,0.00,WUHU21623XXSP,2013-08-11 18:21:00,
2013-08-11 13:28:00,86.2,71.2,30.11,SE,135,0.0,0.0,61,0.00,,,0.00,WUHU21623XXSP,2013-08-11 18:28:00,
2013-08-11 13:33:00,86.2,70.7,30.11,NE,45,0.0,0.0,60,0.00,,,0.00,WUHU21623XXSP,2013-08-11 18:33:00,
2013-08-11 13:38:00,85.8,70.4,30.11,SE,135,0.0,0.0,60,0.00,,,0.00,WUHU21623XXSP,2013-08-11 18:38:00,
2013-08-11 13:43:00,84.9,69.0,30.11,SE,135,0.0,0.0,59,0.00,,,0.00,WUHU21623XXSP,2013-08-11 18:43:00,
2013-08-11 13:48:00,84.6,69.2,30.11,ESE,112,0.0,0.0,60,0.00,,,0.00,WUHU21623XXSP,2013-08-11 18:48:00,
2013-08-11 13:53:00,85.1,69.7,30.11,ESE,112,0.0,0.0,60,0.00,,,0.00,WUHU21623XXSP,2013-08-11 18:53:00,
2013-08-11 13:58:00,86.4,70.4,30.10,ESE,112,0.0,0.0,59,0.00,,,0.00,WUHU21623XXSP,2013-08-11 18:58:00,
2013-08-11 14:03:00,86.7,71.2,30.10,ESE,112,0.0,0.0,60,0.00,,,0.00,WUHU21623XXSP,2013-08-11 19:03:00,
2013-08-11 14:08:00,87.3,71.2,30.10,NE,45,6.5,12.8,59,0.00,,,0.00,WUHU21623XXSP,2013-08-11 19:08:00,
2013-08-11 14:13:00,88.0,70.3,30.10,SE,135,0.0,12.8,56,0.00,,,0.00,WUHU21623XXSP,2013-08-11 19:13:00,
2013-08-11 14:18:00,88.0,69.2,30.10,ESE,112,0.0,0.0,54,0.00,,,0.00,WUHU21623XXSP,2013-08-11 19:18:00,
2013-08-11 14:23:00,88.2,69.4,30.10,ENE,67,0.0,17.7,54,0.00,,,0.00,WUHU21623XXSP,2013-08-11 19:23:00,
2013-08-11 14:28:00,88.7,69.9,30.10,ENE,67,6.3,17.7,54,0.00,,,0.00,WUHU21623XXSP,2013-08-11 19:28:00,
2013-08-11 14:33:00,88.9,69.5,30.10,SSE,157,4.9,12.3,53,0.00,,,0.00,WUHU21623XXSP,2013-08-11 19:33:00,
2013-08-11 14:38:00,87.3,69.1,30.10,ESE,112,0.0,9.6,55,0.00,,,0.00,WUHU21623XXSP,2013-08-11 19:38:00,
2013-08-11 14:44:00,87.4,70.3,30.09,SE,135,0.0,0.0,57,0.00,,,0.00,WUHU21623XXSP,2013-08-11 19:44:00,
2013-08-11 14:49:00,87.6,70.0,30.09,SE,135,0.0,0.0,56,0.00,,,0.00,WUHU21623XXSP,2013-08-11 19:49:00,
2013-08-11 14:54:00,88.0,69.4,30.09,ESE,112,0.0,0.0,56,0.00,,,0.00,WUHU21623XXSP,2013-08-11 19:54:00,
2013-08-11 14:59:00,88.5,70.1,30.08,ENE,67,6.7,13.2,54,0.00,,,0.00,WUHU21623XXSP,2013-08-11 19:59:00,
2013-08-11 15:04:00,89.4,71.1,30.08,NE,45,0.0,13.2,55,0.00,,,0.00,WUHU21623XXSP,2013-08-11 20:04:00,
2013-08-11 15:09:00,89.2,70.9,30.08,SE,135,5.8,15.4,55,0.00,,,0.00,WUHU21623XXSP,2013-08-11 20:09:00,
2013-08-11 15:15:00,88.7,70.4,30.08,ESE,112,0.0,13.9,55,0.00,,,0.00,WUHU21623XXSP,2013-08-11 20:15:00,
2013-08-11 15:20:00,88.0,69.7,30.08,SE,135,0.0,0.0,54,0.00,,,0.00,WUHU21623XXSP,2013-08-11 20:20:00,
2013-08-11 15:25:00,87.4,69.3,30.08,SE,135,0.0,0.0,56,0.00,,,0.00,WUHU21623XXSP,2013-08-11 20:25:00,
2013-08-11 15:30:00,86.5,69.8,30.08,SE,135,0.0,0.0,56,0.00,,,0.00,WUHU21623XXSP,2013-08-11 20:30:00,
2013-08-11 15:35:00,86.7,70.2,30.08,SE,135,0.0,0.0,58,0.00,,,0.00,WUHU21623XXSP,2013-08-11 20:35:00,
2013-08-11 15:40:00,86.7,69.1,30.07,SSE,157,0.0,11.4,56,0.00,,,0.00,WUHU21623XXSP,2013-08-11 20:40:00,
2013-08-11 15:45:00,85.8,68.8,30.08,SE,135,0.0,11.4,57,0.00,,,0.00,WUHU21623XXSP,2013-08-11 20:45:00,
2013-08-11 15:51:00,85.8,68.8,30.07,SE,135,0.0,0.0,57,0.00,,,0.00,WUHU21623XXSP,2013-08-11 20:51:00,
2013-08-11 15:56:00,85.8,68.3,30.07,ESE,112,0.0,11.4,56,0.00,,,0.00,WUHU21623XXSP,2013-08-11 20:56:00,
2013-08-11 16:01:00,85.6,68.1,30.07,SE,135,0.0,11.4,57,0.00,,,0.00,WUHU21623XXSP,2013-08-11 21:01:00,
2013-08-11 16:06:00,86.4,68.4,30.07,SE,135,0.0,0.0,57,0.00,,,0.00,WUHU21623XXSP,2013-08-11 21:06:00,
2013-08-11 16:11:00,86.5,68.9,30.07,ESE,112,0.0,0.0,56,0.00,,,0.00,WUHU21623XXSP,2013-08-11 21:11:00,
2013-08-11 16:16:00,86.5,69.5,30.07,ESE,112,0.0,0.0,57,0.00,,,0.00,WUHU21623XXSP,2013-08-11 21:16:00,
2013-08-11 16:21:00,86.5,68.9,30.07,SE,135,0.0,0.0,56,0.00,,,0.00,WUHU21623XXSP,2013-08-11 21:21:00,
2013-08-11 16:26:00,86.4,69.3,30.07,ENE,67,0.0,0.0,57,0.00,,,0.00,WUHU21623XXSP,2013-08-11 21:26:00,
2013-08-11 16:31:00,87.1,69.5,30.07,ESE,112,0.0,0.0,56,0.00,,,0.00,WUHU21623XXSP,2013-08-11 21:31:00,
2013-08-11 16:37:00,87.4,69.3,30.07,SE,135,0.0,0.0,55,0.00,,,0.00,WUHU21623XXSP,2013-08-11 21:37:00,
2013-08-11 16:42:00,87.1,69.1,30.07,SSE,157,0.0,0.0,54,0.00,,,0.00,WUHU21623XXSP,2013-08-11 21:42:00,
2013-08-11 16:47:00,86.7,68.6,30.07,ESE,112,0.0,0.0,55,0.00,,,0.00,WUHU21623XXSP,2013-08-11 21:47:00,
2013-08-11 16:52:00,86.5,68.4,30.07,ENE,67,0.0,0.0,55,0.00,,,0.00,WUHU21623XXSP,2013-08-11 21:52:00,
2013-08-11 16:57:00,86.5,68.4,30.07,SE,135,0.0,0.0,55,0.00,,,0.00,WUHU21623XXSP,2013-08-11 21:57:00,
2013-08-11 17:02:00,86.0,68.4,30.07,SE,135,0.0,0.0,56,0.00,,,0.00,WUHU21623XXSP,2013-08-11 22:02:00,
2013-08-11 17:08:00,85.8,68.3,30.07,SE,135,0.0,0.0,56,0.00,,,0.00,WUHU21623XXSP,2013-08-11 22:08:00,
2013-08-11 17:13:00,85.5,67.9,30.07,SE,135,0.0,0.0,56,0.00,,,0.00,WUHU21623XXSP,2013-08-11 22:13:00,
2013-08-11 17:18:00,85.5,68.5,30.07,SE,135,0.0,0.0,57,0.00,,,0.00,WUHU21623XXSP,2013-08-11 22:18:00,
2013-08-11 17:23:00,85.6,68.1,30.07,East,90,0.0,0.0,56,0.00,,,0.00,WUHU21623XXSP,2013-08-11 22:23:00,
2013-08-11 17:28:00,86.4,68.3,30.07,ENE,67,0.0,0.0,55,0.00,,,0.00,WUHU21623XXSP,2013-08-11 22:28:00,
2013-08-11 17:33:00,86.7,67.5,30.07,ENE,67,0.0,0.0,53,0.00,,,0.00,WUHU21623XXSP,2013-08-11 22:33:00,
2013-08-11 17:38:00,87.1,67.3,30.07,ENE,67,0.0,0.0,52,0.00,,,0.00,WUHU21623XXSP,2013-08-11 22:38:00,
2013-08-11 17:43:00,87.4,67.7,30.07,ENE,67,0.0,0.0,52,0.00,,,0.00,WUHU21623XXSP,2013-08-11 22:43:00,
2013-08-11 17:48:00,87.1,67.3,30.07,ENE,67,0.0,0.0,52,0.00,,,0.00,WUHU21623XXSP,2013-08-11 22:48:00,
2013-08-11 17:53:00,86.5,67.4,30.07,ENE,67,0.0,0.0,53,0.00,,,0.00,WUHU21623XXSP,2013-08-11 22:53:00,
2013-08-11 17:58:00,85.6,66.5,30.06,SE,135,0.0,0.0,53,0.00,,,0.00,WUHU21623XXSP,2013-08-11 22:58:00,
2013-08-11 18:03:00,85.3,66.7,30.06,ESE,112,0.0,0.0,54,0.00,,,0.00,WUHU21623XXSP,2013-08-11 23:03:00,
2013-08-11 18:08:00,85.3,67.3,30.07,ESE,112,0.0,0.0,55,0.00,,,0.00,WUHU21623XXSP,2013-08-11 23:08:00,
2013-08-11 18:13:00,84.7,66.8,30.07,SE,135,0.0,0.0,55,0.00,,,0.00,WUHU21623XXSP,2013-08-11 23:13:00,
2013-08-11 18:18:00,85.3,67.8,30.07,SE,135,0.0,0.0,56,0.00,,,0.00,WUHU21623XXSP,2013-08-11 23:18:00,
2013-08-11 18:23:00,85.8,68.3,30.06,ESE,112,7.4,14.5,56,0.00,,,0.00,WUHU21623XXSP,2013-08-11 23:23:00,
2013-08-11 18:28:00,85.3,67.8,30.07,East,90,0.0,14.5,56,0.00,,,0.00,WUHU21623XXSP,2013-08-11 23:28:00,
2013-08-11 18:34:00,84.4,67.5,30.06,ESE,112,0.0,13.2,57,0.00,,,0.00,WUHU21623XXSP,2013-08-11 23:34:00,
2013-08-11 18:39:00,84.0,67.7,30.07,ESE,112,0.0,13.2,58,0.00,,,0.00,WUHU21623XXSP,2013-08-11 23:39:00,
2013-08-11 18:44:00,83.8,67.5,30.07,ESE,112,0.0,0.0,58,0.00,,,0.00,WUHU21623XXSP,2013-08-11 23:44:00,
2013-08-11 18:49:00,84.0,67.7,30.07,NE,45,0.0,0.0,58,0.00,,,0.00,WUHU21623XXSP,2013-08-11 23:49:00,
2013-08-11 18:54:00,84.0,68.2,30.07,NE,45,0.0,0.0,59,0.00,,,0.00,WUHU21623XXSP,2013-08-11 23:54:00,
2013-08-11 18:59:00,83.5,68.0,30.07,NE,45,0.0,0.0,58,0.00,,,0.00,WUHU21623XXSP,2013-08-11 23:59:00,
2013-08-11 19:04:00,82.9,67.6,30.07,NE,45,0.0,0.0,60,0.00,,,0.00,WUHU21623XXSP,2013-08-12 00:04:00,
2013-08-11 19:09:00,82.4,66.6,30.07,NE,45,0.0,0.0,59,0.00,,,0.00,WUHU21623XXSP,2013-08-12 00:09:00,
2013-08-11 19:14:00,82.2,66.4,30.07,ESE,112,0.0,0.0,59,0.00,,,0.00,WUHU21623XXSP,2013-08-12 00:14:00,
2013-08-11 19:19:00,82.0,66.3,30.07,SE,135,0.0,0.0,59,0.00,,,0.00,WUHU21623XXSP,2013-08-12 00:19:00,
2013-08-11 19:24:00,81.7,65.9,30.07,SE,135,0.0,0.0,59,0.00,,,0.00,WUHU21623XXSP,2013-08-12 00:24:00,
2013-08-11 19:29:00,81.3,66.1,30.07,SE,135,0.0,0.0,60,0.00,,,0.00,WUHU21623XXSP,2013-08-12 00:29:00,
2013-08-11 19:35:00,81.0,65.8,30.07,SE,135,0.0,0.0,60,0.00,,,0.00,WUHU21623XXSP,2013-08-12 00:35:00,
2013-08-11 19:40:00,80.8,65.6,30.07,SE,135,0.0,0.0,60,0.00,,,0.00,WUHU21623XXSP,2013-08-12 00:40:00,
2013-08-11 19:45:00,80.4,65.8,30.07,SE,135,0.0,0.0,61,0.00,,,0.00,WUHU21623XXSP,2013-08-12 00:45:00,
2013-08-11 19:51:00,80.2,65.6,30.07,SE,135,0.0,0.0,62,0.00,,,0.00,WUHU21623XXSP,2013-08-12 00:51:00,
2013-08-11 19:56:00,79.7,66.4,30.07,SE,135,0.0,0.0,64,0.00,,,0.00,WUHU21623XXSP,2013-08-12 00:56:00,
2013-08-11 20:01:00,79.2,66.4,30.08,SE,135,0.0,0.0,65,0.00,,,0.00,WUHU21623XXSP,2013-08-12 01:01:00,
2013-08-11 20:06:00,78.6,65.8,30.08,SE,135,0.0,0.0,65,0.00,,,0.00,WUHU21623XXSP,2013-08-12 01:06:00,
2013-08-11 20:11:00,77.7,65.9,30.08,SE,135,0.0,0.0,67,0.00,,,0.00,WUHU21623XXSP,2013-08-12 01:11:00,
2013-08-11 20:16:00,77.5,66.1,30.08,SE,135,0.0,0.0,68,0.00,,,0.00,WUHU21623XXSP,2013-08-12 01:16:00,
2013-08-11 20:21:00,77.2,66.3,30.08,SE,135,0.0,0.0,69,0.00,,,0.00,WUHU21623XXSP,2013-08-12 01:21:00,
2013-08-11 20:26:00,76.8,66.4,30.08,SE,135,0.0,0.0,70,0.00,,,0.00,WUHU21623XXSP,2013-08-12 01:26:00,
2013-08-11 20:31:00,76.6,66.6,30.08,SE,135,0.0,0.0,71,0.00,,,0.00,WUHU21623XXSP,2013-08-12 01:31:00,
2013-08-11 20:37:00,76.3,66.2,30.08,SE,135,0.0,0.0,71,0.00,,,0.00,WUHU21623XXSP,2013-08-12 01:37:00,
2013-08-11 20:42:00,76.1,66.6,30.08,SE,135,0.0,0.0,72,0.00,,,0.00,WUHU21623XXSP,2013-08-12 01:42:00,
2013-08-11 20:47:00,75.9,66.3,30.08,SE,135,0.0,0.0,73,0.00,,,0.00,WUHU21623XXSP,2013-08-12 01:47:00,
2013-08-11 20:53:00,75.7,66.5,30.08,SE,135,0.0,0.0,73,0.00,,,0.00,WUHU21623XXSP,2013-08-12 01:53:00,
2013-08-11 20:58:00,75.4,66.5,30.09,SE,135,0.0,0.0,74,0.00,,,0.00,WUHU21623XXSP,2013-08-12 01:58:00,
2013-08-11 21:03:00,75.2,66.3,30.09,SE,135,0.0,0.0,74,0.00,,,0.00,WUHU21623XXSP,2013-08-12 02:03:00,
2013-08-11 21:08:00,75.0,66.6,30.10,SE,135,0.0,0.0,75,0.00,,,0.00,WUHU21623XXSP,2013-08-12 02:08:00,
2013-08-11 21:13:00,74.8,66.4,30.10,SE,135,0.0,0.0,75,0.00,,,0.00,WUHU21623XXSP,2013-08-12 02:13:00,
2013-08-11 21:19:00,74.8,66.8,30.10,SE,135,0.0,0.0,76,0.00,,,0.00,WUHU21623XXSP,2013-08-12 02:19:00,
2013-08-11 21:24:00,74.5,66.4,30.10,SE,135,0.0,0.0,76,0.00,,,0.00,WUHU21623XXSP,2013-08-12 02:24:00,
2013-08-11 21:30:00,74.5,66.4,30.10,SE,135,0.0,0.0,76,0.00,,,0.00,WUHU21623XXSP,2013-08-12 02:30:00,
2013-08-11 21:35:00,74.5,66.4,30.10,SE,135,0.0,0.0,76,0.00,,,0.00,WUHU21623XXSP,2013-08-12 02:35:00,
2013-08-11 21:40:00,74.1,66.1,30.10,SE,135,0.0,0.0,76,0.00,,,0.00,WUHU21623XXSP,2013-08-12 02:40:00,
2013-08-11 21:45:00,74.1,66.1,30.10,SE,135,0.0,0.0,76,0.00,,,0.00,WUHU21623XXSP,2013-08-12 02:45:00,
2013-08-11 21:50:00,73.9,66.3,30.09,SE,135,0.0,0.0,77,0.00,,,0.00,WUHU21623XXSP,2013-08-12 02:50:00,
2013-08-11 21:56:00,73.9,66.3,30.10,SE,135,0.0,0.0,77,0.00,,,0.00,WUHU21623XXSP,2013-08-12 02:56:00,
2013-08-11 22:01:00,73.9,66.3,30.10,SE,135,0.0,0.0,77,0.00,,,0.00,WUHU21623XXSP,2013-08-12 03:01:00,
2013-08-11 22:06:00,73.6,65.9,30.10,SE,135,0.0,0.0,77,0.00,,,0.00,WUHU21623XXSP,2013-08-12 03:06:00,
2013-08-11 22:11:00,73.4,65.8,30.10,SE,135,0.0,0.0,77,0.00,,,0.00,WUHU21623XXSP,2013-08-12 03:11:00,
2013-08-11 22:16:00,73.2,65.8,30.10,SE,135,0.0,0.0,77,0.00,,,0.00,WUHU21623XXSP,2013-08-12 03:16:00,
2013-08-11 22:21:00,73.2,66.0,30.09,SE,135,0.0,0.0,78,0.00,,,0.00,WUHU21623XXSP,2013-08-12 03:21:00,
2013-08-11 22:26:00,73.2,66.0,30.09,SE,135,0.0,0.0,78,0.00,,,0.00,WUHU21623XXSP,2013-08-12 03:26:00,
2013-08-11 22:33:00,73.0,65.8,30.09,SE,135,0.0,0.0,78,0.00,,,0.00,WUHU21623XXSP,2013-08-12 03:33:00,
2013-08-11 22:38:00,73.0,66.2,30.09,SE,135,0.0,0.0,79,0.00,,,0.00,WUHU21623XXSP,2013-08-12 03:38:00,
2013-08-11 22:45:00,73.0,66.6,30.09,SE,135,0.0,0.0,80,0.00,,,0.00,WUHU21623XXSP,2013-08-12 03:45:00,
2013-08-11 22:50:00,72.9,66.4,30.09,SE,135,0.0,0.0,80,0.00,,,0.00,WUHU21623XXSP,2013-08-12 03:50:00,
2013-08-11 22:57:00,72.9,66.4,30.09,SE,135,0.0,0.0,80,0.00,,,0.00,WUHU21623XXSP,2013-08-12 03:57:00,
2013-08-11 23:01:00,72.7,66.5,30.10,SE,135,0.0,0.0,81,0.00,,,0.00,WUHU21623XXSP,2013-08-12 04:01:00,
2013-08-11 23:04:00,72.9,66.5,30.09,SE,135,0.0,0.0,81,0.00,,,0.00,WUHU21623XXSP,2013-08-12 04:04:00,
2013-08-11 23:09:00,72.9,66.7,30.10,SE,135,0.0,0.0,81,0.00,,,0.00,WUHU21623XXSP,2013-08-12 04:09:00,
2013-08-11 23:14:00,72.9,66.7,30.10,SE,135,0.0,0.0,81,0.00,,,0.00,WUHU21623XXSP,2013-08-12 04:14:00,
2013-08-11 23:19:00,72.9,66.7,30.10,SE,135,0.0,0.0,81,0.00,,,0.00,WUHU21623XXSP,2013-08-12 04:19:00,
2013-08-11 23:24:00,72.9,66.7,30.10,SE,135,0.0,0.0,81,0.00,,,0.00,WUHU21623XXSP,2013-08-12 04:24:00,
2013-08-11 23:29:00,72.9,66.7,30.10,SE,135,0.0,0.0,81,0.00,,,0.00,WUHU21623XXSP,2013-08-12 04:29:00,
2013-08-11 23:34:00,72.9,66.7,30.10,SE,135,0.0,0.0,81,0.00,,,0.00,WUHU21623XXSP,2013-08-12 04:34:00,
2013-08-11 23:39:00,72.9,66.7,30.10,SE,135,0.0,0.0,81,0.00,,,0.00,WUHU21623XXSP,2013-08-12 04:39:00,
2013-08-11 23:44:00,72.7,66.5,30.10,SE,135,0.0,0.0,81,0.00,,,0.00,WUHU21623XXSP,2013-08-12 04:44:00,
2013-08-11 23:49:00,72.5,66.4,30.10,SE,135,0.0,0.0,81,0.00,,,0.00,WUHU21623XXSP,2013-08-12 04:49:00,
2013-08-11 23:54:00,72.5,66.4,30.10,SE,135,0.0,0.0,81,0.00,,,0.00,WUHU21623XXSP,2013-08-12 04:54:00,
2013-08-11 23:59:00,72.5,66.4,30.10,SE,135,0.0,0.0,81,0.00,,,0.00,WUHU21623XXSP,2013-08-12 04:59:00,